User: anonymous   Login
Location: Unspecified
(0.0000°N, 0.0000°E)
Time: 19:27:27
(UTC+00:00)
Language:

CENTISPACE-1 S9 - Orbit

View from above orbital plane
View from above orbital plane
View from above satellite
View from above satellite

Ground track
Ground track

The orbit is defined by the following mean orbital elements,

1 62578U          26145.66069573 +.00000000 +00000-0 +12591-3 0 00002
2 62578  54.9836  11.0700 0012637  39.6132 320.5745 13.80602690    08
Epoch (UTC): 25 May 2026 15:51:24
Eccentricity: 0.0012637
inclination: 54.9836°
perigee height: 952 km
apogee height: 971 km
right ascension of ascending node: 11.0700°
argument of perigee: 39.6132°
revolutions per day: 13.80602690
mean anomaly at epoch: 320.5745°

The dashed part of the orbit path shows where the satellite is in the earth's shadow,  

DLR